Orbital Elements at Epoch 2457164.5 (2015-May-22.0) TDB
Reference: JPL 19 (heliocentric ecliptic J2000)
Element | Value | Uncertainty (1-sigma) | Units |
e | .5394647052225616 | 2.5981e-06 | |
a | 3.673943594210344 | 1.5631e-06 | au |
q | 1.691980696155342 | 8.9771e-06 | au |
i | 3.682036792350926 | 2.5637e-05 | deg |
node | 89.78027602563908 | 0.0010595 | deg |
peri | 6.700966864673739 | 0.0011594 | deg |
M | 356.8113018584882 | 0.00011084 | deg |
tp | 2457187.282850547157 (2015-Jun-13.78285055) | 0.00079954 | TDB |
period | 2572.155103113007 7.04 | 0.0016415 4.494e-06 | d yr |
n | .1399604555589599 | 8.932e-08 | deg/d |
Q | 5.655906492265345 | 2.4063e-06 | au |
|
Additional Model Parameters
Parameter | Value | Uncertainty (1-sigma) |
A1 [EST] | 1.989948518141983E-9 | 1.889E-10 |
A2 [EST] | -4.548815640249512E-11 | 3.612E-12 |
|
| | Orbit Determination Parameters
Additional Information
|